Beaumont, TX

12:40 AM CDT on May 30, 2017 (GMT -0500)
Southeast Texas Regional

Weather History for KBPT - March, 2014

Change the Weather History Date:

Tuesday, March 18, 2014

  Actual Average Record
Temperature  
Mean Temperature 58 °F 62 °F  
Max Temperature 71 °F 72 °F 85 °F (1925)
Min Temperature 44 °F 53 °F 33 °F (1960)
Degree Days  
Heating Degree Days 7 4  
Month to date heating degree days 171 103  
Since 1 July heating degree days 1640 1316  
Cooling Degree Days 0 2  
Month to date cooling degree days 8 25  
Year to date cooling degree days 32 51  
Growing Degree Days 8 (Base 50)    
Moisture  
Dew Point 50 °F    
Average Humidity 73    
Maximum Humidity 93    
Minimum Humidity 53    
Precipitation  
Precipitation 0.00 in 0.11 in 2.15 in (1905)
Month to date precipitation 1.53 2.05  
Year to date precipitation 8.25 10.89  
Snow  
Snow 0.00 in 0.00 in 0.00 in ()
Month to date snowfall 0.0 0.0  
Since 1 July snowfall 0.3 T  
Snow Depth 0.00 in    
Sea Level Pressure  
Sea Level Pressure 29.86 in    
Wind  
Wind Speed 12 mph (SSE)    
Max Wind Speed 25 mph    
Max Gust Speed 31 mph    
Visibility 10 miles    
Events      
T = Trace of Precipitation, MM = Missing Value Source: NWS Daily Summary

Daily Weather History Graph

Daily Weather History Graph

Search for Another Location

Airport or City:

Trip Planner

Search our weather history database for the weather conditions in past years. The results will help you decide how hot, cold, wet, or windy it might be!

Date:

Astronomy

Mar. 18, 2014 Rise Set
Actual Time 7:22 AM CDT 7:26 PM CDT
Civil Twilight 6:58 AM CDT 7:50 PM CDT
Nautical Twilight 6:30 AM CDT 8:17 PM CDT
Astronomical Twilight 6:02 AM CDT 8:45 PM CDT
Moon 9:32 PM CDT (3/18) 8:21 AM CDT (3/18)
Length of Visible Light 12h 51m
Length of Day
12h 04m
Waning Gibbous, 96% of the Moon is Illuminated
Mar 18
Waning Gibbous
Mar 23
Last Quarter
Mar 30
New
Apr 7
First Quarter
Apr 15
Full

Hourly Weather History & Observations

Time (CDT) Temp. Windchill Dew Point Humidity Pressure Visibility Wind Dir Wind Speed Gust Speed Precip Events Conditions
12:53 AM 46.0 °F 43.9 °F 43.0 °F 89% 29.86 in 10.0 mi SE 4.6 mph - N/A   Clear
1:53 AM 46.0 °F 43.9 °F 43.0 °F 89% 29.87 in 10.0 mi ESE 4.6 mph - N/A   Clear
2:53 AM 46.9 °F - 44.1 °F 90% 29.86 in 10.0 mi SSE 5.8 mph - N/A   Clear
3:53 AM 46.9 °F - 45.0 °F 93% 29.86 in 9.0 mi SSE 3.5 mph - N/A   Clear
4:53 AM 46.0 °F 44.8 °F 44.1 °F 93% 29.85 in 6.0 mi SSE 3.5 mph - N/A   Clear
5:53 AM 46.0 °F 44.8 °F 44.1 °F 93% 29.85 in 6.0 mi SSE 3.5 mph - N/A   Clear
6:53 AM 45.0 °F 41.2 °F 43.0 °F 93% 29.84 in 8.0 mi SSE 6.9 mph - N/A   Clear
7:53 AM 48.9 °F - 46.0 °F 90% 29.84 in 10.0 mi SSE 8.1 mph - N/A   Clear
8:53 AM 57.9 °F - 52.0 °F 81% 29.85 in 10.0 mi SSE 10.4 mph - N/A   Clear
9:53 AM 62.1 °F - 52.0 °F 70% 29.88 in 10.0 mi South 12.7 mph 20.7 mph N/A   Partly Cloudy
10:53 AM 64.9 °F - 50.0 °F 58% 29.89 in 10.0 mi South 16.1 mph - N/A   Clear
11:53 AM 68.0 °F - 51.1 °F 55% 29.88 in 10.0 mi South 20.7 mph 25.3 mph N/A   Partly Cloudy
12:53 PM 69.1 °F - 51.1 °F 53% 29.87 in 10.0 mi South 23.0 mph 28.8 mph N/A   Clear
1:53 PM 69.1 °F - 52.0 °F 54% 29.86 in 10.0 mi South 19.6 mph 27.6 mph N/A   Partly Cloudy
2:53 PM 70.0 °F - 52.0 °F 53% 29.85 in 10.0 mi South 18.4 mph 25.3 mph N/A   Partly Cloudy
3:53 PM 70.0 °F - 53.1 °F 55% 29.84 in 10.0 mi South 17.3 mph 25.3 mph N/A   Partly Cloudy
4:53 PM 69.1 °F - 54.0 °F 58% 29.83 in 10.0 mi South 15.0 mph - N/A   Clear
5:53 PM 66.9 °F - 54.0 °F 63% 29.83 in 10.0 mi South 15.0 mph - N/A   Clear
6:53 PM 64.0 °F - 54.0 °F 70% 29.85 in 10.0 mi South 15.0 mph - N/A   Clear
7:53 PM 61.0 °F - 54.0 °F 78% 29.84 in 10.0 mi SSE 13.8 mph - N/A   Clear
8:53 PM 60.1 °F - 54.0 °F 80% 29.87 in 10.0 mi SSE 11.5 mph - N/A   Clear
9:53 PM 59.0 °F - 54.0 °F 83% 29.91 in 10.0 mi SSE 8.1 mph - N/A   Clear
10:53 PM 57.0 °F - 54.0 °F 89% 29.92 in 10.0 mi SSE 8.1 mph - N/A   Clear
11:53 PM 60.1 °F - 55.9 °F 86% 29.92 in 10.0 mi SSE 11.5 mph - N/A   Overcast